Regional Weather Roundup
Issued by NWS Newport/Morehead, NC

Current Version | Previous Version | Graphics & Text | Print | Product List | Glossary On
Versions: 1 2 3 4 5 6 7 8 9 10 11 12 13 14 15 16 17 18 19 20 21 22 23 24 25 26 27 28 29 30 31 32 33 34 35 36 37 38 39 40 41 42 43 44 45 46 47 48 49 50
000 ASUS42 KMHX 261925 RWRMHX WEATHER ROUNDUP FOR EASTERN NORTH CAROLINA NATIONAL WEATHER SERVICE NEWPORT/MOREHEAD CITY NC 300 PM EDT TUE JUL 26 2016 NOTE: "FAIR" INDICATES FEW OR NO CLOUDS BELOW 12,000 FEET WITH NO SIGNIFICANT WEATHER AND/OR OBSTRUCTIONS TO VISIBILITY NCZ015>017-031-032-045>047-102-103-262000- NORTH COAST CITY SKY/WX TMP DP RH WIND PRES REMARKS EDENTON MOSUNNY 95 76 53 SW6 29.95F HX 107 ELIZABETH CITY MOSUNNY 94 77 57 W6 29.93F HX 108 KITTY HAWK PTCLDY 98 74 45 W5 29.94F HX 109 MANTEO N/A 91 79 67 NE5 29.95F HX 107 $$ NCZ045>047-081-094-103-104-262000- CENTRAL COAST CITY SKY/WX TMP DP RH WIND PRES REMARKS FRISCO SUNNY 85 77 77 SW14G22 29.97F $$ NCZ095-097-098-100-101-262000- SOUTHERN COAST CITY SKY/WX TMP DP RH WIND PRES REMARKS BEAUFORT SUNNY 87 77 72 SW20 29.99F CEDAR ISLAND NOT AVBL JACKSONVILLE SUNNY 95 75 52 W7 29.97F HX 107 PINEY ISLAND CLEAR N/A N/A N/A SW14G22 29.97 WILMINGTON MOSUNNY 93 73 52 S9 29.99F HX 102 $$ NCZ011>013-027>030-043-044-078>080-089-090>093-098-262000- COASTAL PLAIN CITY SKY/WX TMP DP RH WIND PRES REMARKS AHOSKIE NOT AVBL CLINTON MOSUNNY 94 78 59 S6 29.98F HX 110 ELIZABETHTOWN MOSUNNY 94 75 52 SW7 29.99F HX 105 GOLDSBORO MOSUNNY 96 74 48 SW10 29.95F HX 106 GREENVILLE SUNNY 95 77 55 W8 29.97F HX 109 HAVELOCK SUNNY 93 76 57 SW15 29.98F HX 105 KENANSVILLE NOT AVBL KINSTON SUNNY 97 75 49 S9 29.97F HX 109 NEW BERN SUNNY 94 75 54 W12 29.98F HX 105 RICHLANDS SUNNY 96 76 52 SW7 29.98F HX 109 ROCKY MOUNT MOSUNNY 95 78 58 SW10 29.96F HX 111 WASHINGTON SUNNY 93 78 60 SW13 29.95F HX 108 WHITEVILLE SUNNY 95 74 50 SW7 29.99F HX 105 $$ AMZ130-135-150-152-154-156-158-170-250-252-270-ANZ085-086-088-633-658-670-262000- MARINE OBSERVATIONS STATION/POSITION TIME TEMP WIND PRES WAVE SWELL AIR SEA DIR/SP/G HT/PER HT/PER (UTC) (F) (DEG/KT/KT) (MB) (FT/S) (FT/S) CHESAPEAKE LIGHT NOT AVBL 64 E VA BEACH 1850 82 81 240/ 8/ 10 1013.9 4/ 6 3/ 6 DUCK 1900 85 61 110/ 6/ 8 1013.4 2 E DUCK 1811 68 N/A 1/ 9 OREGON INLET 1900 85 85 190/ 13/ 15 1014.0 13E OREGON INLT 1900 82 N/A 3/ 5 HATTERAS CG 1900 86 83 220/ 12/ 20 1014.7 DIAMOND BUOY 1850 84 84 230/ 21/ 25 1014.7 5/ 6 CAPE LOOKOUT 1900 86 230/ 13/ 17 1015.3 BEAUFORT LAB 1900 87 82 220/ 9/ 13 1014.9 30 SE NEW RVR IN 1908 85 85 220/ 16/ 21 1015.7 30 SE NEW RVR IN 1825 85 N/A 4/ 5 27 SE WRIGHTSVLE 1908 84 84 210/ 14/ 17 1016.2 5 SE WRIGHTSVLE 1908 83 81 220/ 16/ 19 1016.5 225 S CAPE HAT 1850 84 85 270/ 12/ 12 1018.3 3/ 4 2/ 8 41 SE CHARLESTON 1850 85 86 220/ 12/ 14 1016.8 2/ 4 2/ 8 $$

USA.gov is the U.S. government's official web portal to all federal, state and local government web resources and services.